Change the Weather History Date:

Monday, January 28, 2013

  Actual Average Record
Temperature  
Mean Temperature 30 °F -  
Max Temperature 32 °F 25 °F 49 °F (1953)
Min Temperature 28 °F 12 °F -12 °F (1977)
Degree Days  
Heating Degree Days 35    
Moisture  
Dew Point 29 °F    
Average Humidity 95    
Maximum Humidity 99    
Minimum Humidity 89    
Precipitation  
Precipitation 0.00 in - - ()
Sea Level Pressure  
Sea Level Pressure 29.90 in    
Wind  
Wind Speed 6 mph (East)    
Max Wind Speed 13 mph    
Max Gust Speed -    
Visibility 6 miles    
Events Snow    
Averages and records for this station are not official NWS values.
T = Trace of Precipitation, MM = Missing Value Source: NWS Daily Summary

Daily Weather History Graph

Daily Weather History Graph

Search for Another Location

Airport or City:

Trip Planner

Search our weather history database for the weather conditions in past years. The results will help you decide how hot, cold, wet, or windy it might be!

Date:

Astronomy

Jan. 28, 2013 Rise Set
Actual Time 8:08 AM EST 5:43 PM EST
Civil Twilight 7:35 AM EST 6:15 PM EST
Nautical Twilight 7:00 AM EST 6:51 PM EST
Astronomical Twilight 6:25 AM EST 7:26 PM EST
Moon 7:45 PM EST 8:25 AM EST
Length of Visible Light 10h 39m
Length of Day
9h 35m
Full, 98% of the Moon is Illuminated
Jan 28
Full
Feb 3
Last Quarter
Feb 10
New
Feb 17
First Quarter
Feb 25
Full

Hourly Weather History & Observations

Time (EST) Temp. Windchill Dew Point Humidity Pressure Visibility Wind Dir Wind Speed Gust Speed Precip Events Conditions
12:15 AM 29.3 °F 19.1 °F 28.4 °F 96% 30.01 in 1.8 mi East 12.7 mph - N/A Snow Light Snow
12:36 AM 29.3 °F 19.6 °F 28.4 °F 96% 30.00 in 1.8 mi ESE 11.5 mph - N/A Snow Light Snow
12:55 AM 29.3 °F 20.2 °F 28.8 °F 98% 30.00 in 1.5 mi ESE 10.4 mph - N/A Snow Light Snow
1:15 AM 29.3 °F 21.5 °F 28.8 °F 98% 29.98 in 1.2 mi ESE 8.1 mph - N/A Snow Light Snow
1:35 AM 29.3 °F 20.8 °F 28.8 °F 98% 29.97 in 1.2 mi ESE 9.2 mph - N/A Snow Light Snow
1:55 AM 29.3 °F 19.6 °F 28.8 °F 98% 29.96 in 1.8 mi ESE 11.5 mph - N/A Snow Light Snow
2:16 AM 29.3 °F 20.8 °F 28.8 °F 98% 29.95 in 1.2 mi ESE 9.2 mph - N/A Snow Light Snow
2:35 AM 29.3 °F 20.8 °F 28.8 °F 98% 29.94 in 2.0 mi ESE 9.2 mph - N/A Snow Light Snow
2:55 AM 29.7 °F 22.0 °F 28.9 °F 97% 29.93 in 3.0 mi ESE 8.1 mph - N/A Snow Light Snow
3:16 AM 29.8 °F 23.9 °F 29.1 °F 97% 29.93 in 3.0 mi ESE 5.8 mph - N/A Snow Light Snow
3:35 AM 29.8 °F 23.0 °F 29.3 °F 98% 29.92 in 2.5 mi ESE 6.9 mph - N/A Snow Light Snow
3:55 AM 29.8 °F 23.9 °F 29.3 °F 98% 29.90 in 2.0 mi ESE 5.8 mph - N/A Snow Light Snow
4:15 AM 29.8 °F 26.3 °F 29.3 °F 98% 29.90 in 1.0 mi ESE 3.5 mph - N/A Snow Snow
4:35 AM 29.7 °F 24.7 °F 29.1 °F 98% 29.89 in 1.2 mi East 4.6 mph - N/A Snow Light Snow
4:55 AM 29.5 °F 24.5 °F 29.3 °F 99% 29.89 in 1.8 mi East 4.6 mph - N/A Snow Light Snow
5:15 AM 29.7 °F 23.7 °F 29.3 °F 99% 29.88 in 1.5 mi East 5.8 mph - N/A Snow Light Snow
5:36 AM 29.7 °F 22.0 °F 29.3 °F 99% 29.87 in 1.0 mi East 8.1 mph - N/A Snow Snow
5:55 AM 29.1 °F 20.6 °F 28.4 °F 97% 29.85 in 1.5 mi East 9.2 mph - N/A Snow Light Snow
6:15 AM 29.3 °F 22.3 °F 29.1 °F 99% 29.85 in 2.0 mi ESE 6.9 mph - N/A Snow Light Snow
6:36 AM 29.3 °F 22.3 °F 29.1 °F 99% 29.84 in 5.0 mi ESE 6.9 mph - N/A Snow Light Snow
6:55 AM 29.3 °F 22.3 °F 28.9 °F 99% 29.84 in 4.0 mi East 6.9 mph - N/A Snow Light Snow
7:15 AM 29.3 °F 22.3 °F 28.9 °F 99% 29.84 in 3.0 mi East 6.9 mph - N/A Snow Light Snow
7:36 AM 29.3 °F 22.3 °F 28.8 °F 98% 29.83 in 2.5 mi East 6.9 mph - N/A Snow Light Snow
7:55 AM 29.1 °F 23.0 °F 28.6 °F 98% 29.82 in 2.5 mi East 5.8 mph - N/A Snow Light Snow
8:16 AM 29.1 °F 23.0 °F 28.8 °F 99% 29.82 in 2.5 mi East 5.8 mph - N/A Snow Light Snow
8:35 AM 29.1 °F 23.0 °F 28.8 °F 99% 29.82 in 1.8 mi East 5.8 mph - N/A Snow Light Snow
8:55 AM 28.9 °F 23.9 °F 28.4 °F 98% 29.82 in 2.0 mi East 4.6 mph - N/A Snow Light Snow
9:16 AM 29.1 °F 23.0 °F 28.6 °F 98% 29.82 in 1.8 mi East 5.8 mph - N/A Snow Light Snow
9:35 AM 29.1 °F 24.1 °F 28.8 °F 99% 29.82 in 2.0 mi East 4.6 mph - N/A Snow Light Snow
9:56 AM 29.1 °F 24.1 °F 28.8 °F 99% 29.81 in 2.0 mi East 4.6 mph - N/A Snow Light Snow
10:15 AM 29.1 °F 25.4 °F 28.8 °F 99% 29.82 in 2.0 mi East 3.5 mph - N/A Snow Light Snow
10:35 AM 29.1 °F 25.4 °F 28.6 °F 98% 29.82 in 3.0 mi East 3.5 mph - N/A   Overcast
10:55 AM 29.1 °F 25.4 °F 28.8 °F 99% 29.82 in 5.0 mi East 3.5 mph - N/A   Overcast
11:15 AM 29.3 °F - 29.1 °F 99% 29.83 in 4.0 mi Calm Calm - N/A   Overcast
11:36 AM 29.3 °F - 29.1 °F 99% 29.84 in 4.0 mi Calm Calm - N/A   Overcast
11:55 AM 29.3 °F 25.6 °F 29.1 °F 99% 29.84 in 2.5 mi NNE 3.5 mph - N/A   Overcast
12:16 PM 29.8 °F 26.3 °F 29.3 °F 98% 29.83 in 4.0 mi North 3.5 mph - N/A   Overcast
12:35 PM 30.7 °F - 30.0 °F 97% 29.83 in 7.0 mi Calm Calm - N/A   Overcast
12:55 PM 30.9 °F 26.2 °F 29.7 °F 95% 29.84 in 10.0 mi NNW 4.6 mph - N/A   Overcast
1:16 PM 31.1 °F 26.4 °F 29.3 °F 93% 29.84 in 10.0 mi NNW 4.6 mph - N/A   Overcast
1:35 PM 31.5 °F 25.8 °F 29.3 °F 92% 29.83 in 10.0 mi North 5.8 mph - N/A   Overcast
1:55 PM 31.8 °F 26.2 °F 29.3 °F 90% 29.83 in 10.0 mi NW 5.8 mph - N/A   Mostly Cloudy
2:16 PM 32.0 °F 27.5 °F 29.3 °F 90% 29.83 in 10.0 mi NW 4.6 mph - N/A   Scattered Clouds
2:35 PM 32.0 °F 25.6 °F 29.3 °F 90% 29.83 in 10.0 mi NNW 6.9 mph - N/A   Scattered Clouds
2:55 PM 31.8 °F 26.2 °F 29.1 °F 90% 29.85 in 10.0 mi NW 5.8 mph - N/A   Scattered Clouds
3:16 PM 31.5 °F 28.1 °F 29.1 °F 91% 29.86 in 10.0 mi NNW 3.5 mph - N/A   Scattered Clouds
3:35 PM 31.3 °F 25.6 °F 29.3 °F 92% 29.87 in 10.0 mi NW 5.8 mph - N/A   Mostly Cloudy
3:55 PM 31.5 °F 28.1 °F 29.7 °F 93% 29.88 in 10.0 mi NW 3.5 mph - N/A   Overcast
4:16 PM 31.6 °F - 29.8 °F 93% 29.89 in 10.0 mi Calm Calm - N/A   Overcast
4:35 PM 31.6 °F - 30.0 °F 94% 29.90 in 10.0 mi Calm Calm - N/A   Overcast
4:56 PM 32.0 °F - 29.8 °F 92% 29.90 in 10.0 mi Calm Calm - N/A   Overcast
5:16 PM 32.0 °F - 29.8 °F 92% 29.92 in 10.0 mi Calm Calm - N/A   Overcast
5:35 PM 32.0 °F - 29.8 °F 92% 29.93 in 10.0 mi Calm Calm - N/A   Overcast
5:56 PM 32.0 °F - 29.8 °F 92% 29.93 in 10.0 mi Calm Calm - N/A   Overcast
6:15 PM 32.0 °F 28.7 °F 29.8 °F 92% 29.93 in 10.0 mi North 3.5 mph - N/A   Overcast
6:36 PM 31.6 °F - 29.3 °F 91% 29.93 in 10.0 mi Calm Calm - N/A   Overcast
6:55 PM 31.6 °F - 28.9 °F 90% 29.94 in 10.0 mi Calm Calm - N/A   Overcast
7:15 PM 31.6 °F - 28.9 °F 90% 29.95 in 10.0 mi Calm Calm - N/A   Overcast
7:36 PM 31.6 °F - 28.8 °F 89% 29.95 in 10.0 mi Calm Calm - N/A   Overcast
7:55 PM 31.1 °F - 28.9 °F 92% 29.97 in 10.0 mi Calm Calm - N/A   Overcast
8:15 PM 31.1 °F - 29.1 °F 92% 29.97 in 10.0 mi Calm Calm - N/A   Overcast
8:36 PM 31.1 °F - 29.1 °F 92% 29.97 in 10.0 mi Calm Calm - N/A   Overcast
8:55 PM 30.9 °F 27.5 °F 29.1 °F 93% 29.97 in 10.0 mi ESE 3.5 mph - N/A   Overcast
9:15 PM 30.9 °F 25.2 °F 29.3 °F 94% 29.96 in 10.0 mi East 5.8 mph - N/A   Overcast
9:36 PM 31.1 °F 26.4 °F 29.3 °F 93% 29.96 in 10.0 mi East 4.6 mph - N/A   Overcast
9:55 PM 30.7 °F 27.3 °F 28.9 °F 93% 29.96 in 10.0 mi ESE 3.5 mph - N/A   Overcast
10:16 PM 31.1 °F 27.7 °F 29.1 °F 92% 29.96 in 10.0 mi East 3.5 mph - N/A   Overcast
10:36 PM 30.9 °F 26.2 °F 29.1 °F 93% 29.96 in 10.0 mi ESE 4.6 mph - N/A   Overcast
10:55 PM 30.7 °F 27.3 °F 28.9 °F 93% 29.96 in 10.0 mi ESE 3.5 mph - N/A   Overcast
11:16 PM 30.9 °F 27.5 °F 29.1 °F 93% 29.96 in 10.0 mi East 3.5 mph - N/A   Overcast
11:36 PM 31.1 °F 27.7 °F 28.9 °F 92% 29.95 in 10.0 mi East 3.5 mph - N/A   Overcast
11:55 PM 31.1 °F 25.4 °F 28.9 °F 92% 29.95 in 10.0 mi East 5.8 mph - N/A   Overcast